Retour au catalogue

JCSAT 5

ActifCommunicationsGEO
NORAD 25067·PAYLOAD·🇯🇵 Japan

Lancé Dec 2, 1997 depuis Guiana Space Centre

Loading…

TLE

FraisSource: Space-Track

Époque: Sep 14, 2026, 12:19 UTC

1 25067U 97075A   26257.51334198  .00000001  00000-0  00000-0 0  9995
2 25067  11.7016  38.7076 0021733 184.4500   3.3679  0.98652819107719

Suivez JCSAT 5 en temps réel avec AllMySat

Download on the App Store